Location: Asheville, NC
(35.6000°N, 82.5500°W)
Time: 18:34:58
(UTC-04:00)

Vanguard 2 Rocket - Pass Details

Date: 17 March 2018
Orbit: 553 x 3328 km, 32.9° (Epoch: 19 June)

Event Time Altitude Azimuth Distance (km) Brightness Sun altitude
Rises 16:56:32 0° 240° (WSW) 3,079 10.8 31.1°
Reaches altitude 10° 16:59:14 10° 232° (SW) 1,973 10.1 30.6°
Maximum altitude 17:03:08 36° 164° (SSE) 888 7.3 29.9°
Drops below altitude 10° 17:06:46 10° 96° (E) 1,846 8.1 29.2°
Sets 17:09:12 0° 88° (E) 2,846 9.0 28.8°
